When you browse on this site, cookies collect data to enhance your experience and personalize the content and advertising you see.
Visit our Privacy Policy to learn more. By continuing to use the site, you agree to this use of cookies and data.
  • In Hungary
  • List of Countries
  • For 7 days
  • Water Temperature
  • Satellite Maps
  • Weather Map
  • News
  • Weather Widgets
  • user-avatar
    Login

    Hourly Weather Bazarnye Mataki

    Today, 20 May, Monday

    Time Temperature Precipitation Wind Pressure Humidity
    00:00 +1°C° 0 mm 3 mps 751 mmHg 76%
    01:00 +1°C° 0 mm 3 mps 751 mmHg 78%
    02:00 0°C° 0 mm 3 mps 751 mmHg 80%
    03:00 0°C° 0 mm 3 mps 751 mmHg 82%
    04:00 +1°C° 0 mm 3 mps 752 mmHg 79%
    05:00 +1°C° 0 mm 4 mps 752 mmHg 75%
    06:00 +4°C° 0 mm 4 mps 752 mmHg 71%
    07:00 +5°C° 0 mm 5 mps 752 mmHg 68%
    08:00 +6°C° 0 mm 5 mps 752 mmHg 64%
    09:00 +8°C° 0 mm 6 mps 752 mmHg 61%
    10:00 +8°C° 0.1 mm 6 mps 752 mmHg 60%
    11:00 +8°C° 0.1 mm 6 mps 752 mmHg 60%
    12:00 +9°C° 0.1 mm 6 mps 752 mmHg 59%
    13:00 +9°C° 0.1 mm 6 mps 752 mmHg 57%
    14:00 +10°C° 0.1 mm 6 mps 751 mmHg 55%
    15:00 +10°C° 0.1 mm 6 mps 751 mmHg 53%
    16:00 +10°C° 0 mm 5 mps 751 mmHg 56%
    17:00 +11°C° 0 mm 4 mps 751 mmHg 60%
    18:00 +10°C° 0 mm 3 mps 752 mmHg 63%
    19:00 +9°C° 0 mm 3 mps 752 mmHg 66%
    20:00 +7°C° 0 mm 3 mps 752 mmHg 69%
    21:00 +5°C° 0 mm 3 mps 752 mmHg 72%
    22:00 +4°C° 0 mm 3 mps 752 mmHg 73%
    23:00 +4°C° 0 mm 3 mps 752 mmHg 74%

    Tomorrow, 21 May, Tuesday

    Time Temperature Precipitation Wind Pressure Humidity
    00:00 +3°C° 0 mm 3 mps 752 mmHg 75%
    01:00 +3°C° 0 mm 3 mps 753 mmHg 77%
    02:00 +3°C° 0 mm 3 mps 753 mmHg 78%
    03:00 +2°C° 0 mm 3 mps 753 mmHg 80%
    04:00 +4°C° 0 mm 3 mps 753 mmHg 77%
    05:00 +5°C° 0 mm 3 mps 753 mmHg 75%
    06:00 +6°C° 0 mm 4 mps 754 mmHg 72%
    07:00 +8°C° 0 mm 4 mps 754 mmHg 64%
    08:00 +9°C° 0 mm 5 mps 754 mmHg 56%
    09:00 +12°C° 0 mm 5 mps 754 mmHg 49%
    10:00 +12°C° 0 mm 5 mps 754 mmHg 47%
    11:00 +13°C° 0 mm 5 mps 754 mmHg 46%
    12:00 +14°C° 0 mm 5 mps 753 mmHg 44%
    13:00 +14°C° 0 mm 5 mps 753 mmHg 44%
    14:00 +14°C° 0 mm 5 mps 753 mmHg 44%
    15:00 +14°C° 0 mm 5 mps 753 mmHg 43%
    16:00 +14°C° 0 mm 4 mps 753 mmHg 48%
    17:00 +13°C° 0 mm 3 mps 753 mmHg 53%
    18:00 +13°C° 0 mm 3 mps 753 mmHg 58%
    19:00 +11°C° 0 mm 3 mps 753 mmHg 61%
    20:00 +10°C° 0 mm 2 mps 753 mmHg 64%
    21:00 +8°C° 0 mm 2 mps 753 mmHg 67%
    22:00 +8°C° 0 mm 2 mps 753 mmHg 68%
    23:00 +7°C° 0 mm 2 mps 753 mmHg 70%

    Day after tomorrow, 22 May, Wednesday

    Time Temperature Precipitation Wind Pressure Humidity
    00:00 +7°C° 0 mm 2 mps 753 mmHg 72%
    01:00 +7°C° 0 mm 2 mps 753 mmHg 74%
    02:00 +7°C° 0 mm 2 mps 753 mmHg 76%
    03:00 +7°C° 0 mm 3 mps 753 mmHg 79%
    04:00 +8°C° 0.1 mm 3 mps 752 mmHg 82%
    05:00 +8°C° 0.1 mm 3 mps 752 mmHg 85%
    06:00 +9°C° 0.1 mm 3 mps 752 mmHg 88%
    07:00 +9°C° 1.5 mm 3 mps 751 mmHg 90%
    08:00 +9°C° 1.5 mm 3 mps 751 mmHg 92%
    09:00 +8°C° 1.5 mm 4 mps 751 mmHg 94%
    10:00 +9°C° 0.3 mm 3 mps 750 mmHg 93%
    11:00 +10°C° 0.3 mm 3 mps 750 mmHg 92%
    12:00 +11°C° 0.3 mm 3 mps 749 mmHg 91%
    13:00 +13°C° 0 mm 2 mps 749 mmHg 89%
    14:00 +14°C° 0 mm 2 mps 749 mmHg 86%
    15:00 +15°C° 0 mm 2 mps 749 mmHg 84%
    16:00 +15°C° 0 mm 1 mps 748 mmHg 85%
    17:00 +15°C° 0 mm 1 mps 748 mmHg 86%
    18:00 +14°C° 0 mm 0 mps 748 mmHg 86%
    19:00 +15°C° 0.3 mm 1 mps 747 mmHg 90%
    20:00 +14°C° 0.3 mm 2 mps 747 mmHg 93%
    21:00 +13°C° 0.3 mm 2 mps 747 mmHg 96%
    22:00 +13°C° 0.8 mm 2 mps 747 mmHg 96%
    23:00 +12°C° 0.8 mm 3 mps 746 mmHg 96%

    23 May, Thursday

    Time Temperature Precipitation Wind Pressure Humidity
    00:00 +12°C° 0.8 mm 3 mps 746 mmHg 95%
    01:00 +12°C° 0.1 mm 3 mps 746 mmHg 95%
    02:00 +12°C° 0.1 mm 4 mps 745 mmHg 95%
    03:00 +11°C° 0.1 mm 4 mps 745 mmHg 94%
    04:00 +12°C° 0.1 mm 5 mps 744 mmHg 93%
    05:00 +13°C° 0.1 mm 5 mps 744 mmHg 92%
    06:00 +14°C° 0.1 mm 6 mps 744 mmHg 91%
    07:00 +14°C° 2.2 mm 6 mps 743 mmHg 93%
    08:00 +14°C° 2.2 mm 6 mps 743 mmHg 94%
    09:00 +14°C° 2.2 mm 5 mps 743 mmHg 95%
    10:00 +15°C° 1 mm 6 mps 743 mmHg 93%
    11:00 +16°C° 1 mm 6 mps 743 mmHg 91%
    12:00 +17°C° 1 mm 6 mps 743 mmHg 89%
    13:00 +16°C° 1.8 mm 5 mps 742 mmHg 91%
    14:00 +16°C° 1.8 mm 5 mps 742 mmHg 93%
    15:00 +15°C° 1.8 mm 4 mps 742 mmHg 94%
    16:00 +15°C° 0.8 mm 4 mps 742 mmHg 93%
    17:00 +17°C° 0.8 mm 3 mps 742 mmHg 92%
    18:00 +17°C° 0.8 mm 3 mps 742 mmHg 91%
    19:00 +16°C° 0 mm 3 mps 743 mmHg 91%
    20:00 +14°C° 0 mm 2 mps 743 mmHg 91%
    21:00 +13°C° 0 mm 2 mps 744 mmHg 91%
    22:00 +11°C° 0 mm 3 mps 744 mmHg 90%
    23:00 +11°C° 0 mm 3 mps 745 mmHg 89%

    24 May, Friday

    Time Temperature Precipitation Wind Pressure Humidity
    00:00 +10°C° 0 mm 4 mps 745 mmHg 87%
    01:00 +9°C° 0 mm 3 mps 746 mmHg 87%
    02:00 +8°C° 0 mm 3 mps 746 mmHg 86%
    03:00 +7°C° 0 mm 3 mps 746 mmHg 85%
    04:00 +7°C° 0 mm 3 mps 747 mmHg 83%
    05:00 +7°C° 0 mm 4 mps 747 mmHg 80%
    06:00 +7°C° 0 mm 4 mps 748 mmHg 78%
    07:00 +9°C° 0 mm 3 mps 748 mmHg 71%
    08:00 +11°C° 0 mm 3 mps 749 mmHg 65%
    09:00 +12°C° 0 mm 3 mps 749 mmHg 59%
    10:00 +13°C° 0 mm 3 mps 749 mmHg 55%
    11:00 +14°C° 0 mm 3 mps 749 mmHg 52%
    12:00 +15°C° 0 mm 2 mps 749 mmHg 49%
    13:00 +15°C° 0 mm 2 mps 749 mmHg 48%
    14:00 +16°C° 0 mm 2 mps 749 mmHg 48%
    15:00 +16°C° 0 mm 2 mps 749 mmHg 47%
    16:00 +15°C° 0 mm 2 mps 749 mmHg 52%
    17:00 +15°C° 0 mm 2 mps 749 mmHg 56%
    18:00 +14°C° 0 mm 2 mps 749 mmHg 61%
    19:00 +13°C° 0 mm 2 mps 749 mmHg 62%
    20:00 +10°C° 0 mm 2 mps 750 mmHg 62%
    21:00 +9°C° 0 mm 2 mps 750 mmHg 63%
    22:00 +8°C° 0 mm 2 mps 750 mmHg 66%
    23:00 +8°C° 0 mm 2 mps 750 mmHg 69%

    25 May, Saturday

    Time Temperature Precipitation Wind Pressure Humidity
    00:00 +7°C° 0 mm 2 mps 751 mmHg 71%
    01:00 +7°C° 0 mm 3 mps 751 mmHg 72%
    02:00 +7°C° 0 mm 3 mps 751 mmHg 72%
    03:00 +5°C° 0 mm 3 mps 751 mmHg 72%
    04:00 +7°C° 0 mm 3 mps 751 mmHg 72%
    05:00 +7°C° 0 mm 4 mps 751 mmHg 71%
    06:00 +8°C° 0 mm 4 mps 752 mmHg 70%
    07:00 +10°C° 0 mm 4 mps 752 mmHg 69%
    08:00 +12°C° 0 mm 4 mps 752 mmHg 67%
    09:00 +13°C° 0 mm 4 mps 752 mmHg 66%
    10:00 +13°C° 0.1 mm 4 mps 752 mmHg 69%
    11:00 +12°C° 0.1 mm 4 mps 752 mmHg 72%
    12:00 +12°C° 0.1 mm 3 mps 751 mmHg 75%
    13:00 +12°C° 0.2 mm 3 mps 751 mmHg 78%
    14:00 +12°C° 0.2 mm 3 mps 751 mmHg 81%
    15:00 +12°C° 0.2 mm 4 mps 751 mmHg 84%
    16:00 +12°C° 0.2 mm 4 mps 751 mmHg 85%
    17:00 +13°C° 0.2 mm 4 mps 750 mmHg 86%
    18:00 +13°C° 0.2 mm 4 mps 750 mmHg 88%
    19:00 +12°C° 0.2 mm 4 mps 750 mmHg 88%
    20:00 +12°C° 0.2 mm 5 mps 750 mmHg 89%
    21:00 +12°C° 0.2 mm 5 mps 750 mmHg 90%
    22:00 +10°C° 0 mm 5 mps 750 mmHg 90%
    23:00 +10°C° 0 mm 5 mps 750 mmHg 89%
    Show more